Orbital Elements at Epoch 2459200.5 (2020-Dec-17.0) TDB
Reference: JPL 20 (heliocentric ecliptic J2000)
Element | Value | Uncertainty (1-sigma) | Units |
e | .15563211401977 | 4.4769e-08 | |
a | 2.31310607544411 | 9.1332e-09 | au |
q | 1.95311248697077 | 1.0492e-07 | au |
i | 4.607708961658061 | 4.7277e-06 | deg |
node | 72.91941958211852 | 5.0873e-05 | deg |
peri | 1.430825076704383 | 5.3003e-05 | deg |
M | 199.0360845545324 | 1.4376e-05 | deg |
tp | 2459775.036702883253 (2022-Jul-14.53670288) | 5.2688e-05 | TDB |
period | 1284.966338359502 3.52 | 7.6105e-06 2.084e-08 | d yr |
n | .2801629811249428 | 1.6593e-09 | deg/d |
Q | 2.673099663917451 | 1.0555e-08 | au |
|
| | Orbit Determination Parameters
Additional Information
|